Retour au catalogue

THOR ABLESTAR R/B

ActifLEO
NORAD 447·ROCKET BODY·🇺🇸 United States

Lancé Oct 31, 1962 depuis Cape Canaveral Space Force Station

Loading…

Prochains Passages (prochaines 24 heures)

TLE

FraisSource: Space-Track

Époque: Sep 6, 2026, 05:24 UTC

1 00447U 62060B   26249.22512976 -.00000106  00000-0  40597-4 0  9993
2 00447  50.1283 225.5882 0065761  61.1075 311.7831 13.39176894122935

Suivez THOR ABLESTAR R/B en temps réel avec AllMySat

Download on the App Store